[[{"header":{"parameterUnit":"m.s-1","parameterCategory":1,"la1":30.2991,"la2":30.254,"lo1":-89.0895,"lo2":-89.0444,"dy":0.0017,"dx":0.0017,"nx":28,"ny":28,"refTime":"2024-06-29T09:00:00:Z","depth":0,"parameterNumber":2,"parameterNumberName":"U-component_of_WINDS"},"data":[0,0,0,0,0,0,0,0,0,0,0,0,0,0,0,0,0,0,0,0,0,0,0,0,0,0,0,0,0,0,0,0,0,0,0,0,0,0,0,0,0,0,0,0,0,0,0,0,0,0,0,0,0,0,0,0,0,0,4.0737,4.0737,0,4.0797,4.0798,4.0799,4.0655,4.065,4.0646,4.0641,4.0714,4.072,4.0726,0,0,0,0,0,0,0,0,0,0,0,0,0,4.0505,4.051,4.0737,4.0737,4.0738,4.0797,4.0798,4.0799,4.0656,4.065,4.0644,4.0639,4.0712,4.0719,4.0727,0,0,0,0,0,0,0,0,0,0,0,0,0,4.059,4.0512,4.0737,4.0674,4.0668,4.0797,4.0798,4.0799,4.0657,4.065,4.0643,4.0637,4.071,4.0719,4.0728,4.0923,0,0,4.0756,4.076,0,0,0,0,0,0,0,0,4.0585,4.0599,4.0682,4.0678,4.0673,4.0711,4.0743,4.0841,4.0659,4.0662,4.0641,4.0633,4.0719,4.0727,4.0754,4.0927,4.093,4.0757,4.0763,4.0767,4.0769,0,0,0,0,0,0,0,4.058,4.0595,4.0761,4.0684,4.0678,4.0645,4.0649,4.0761,4.0729,4.0661,4.065,4.0659,4.0716,4.0746,4.0755,4.0931,4.0757,4.0765,4.0771,4.0775,4.1266,4.1273,0,0,0,0,0,0,4.0581,4.0591,4.0759,4.0763,4.0611,4.0655,4.066,4.0706,4.0727,4.0723,4.0665,4.0652,4.0733,4.0744,4.0757,4.0986,4.0767,4.0775,4.0781,4.1258,4.1267,4.1276,0,0,0,0,0,0,4.0576,4.0597,4.0757,4.0674,4.0692,4.0666,4.0719,4.0711,4.074,4.073,4.0725,4.0701,4.0728,4.0744,4.0882,4.0986,4.078,4.0788,4.125,4.1261,4.1272,4.1446,0,0,0,0,0,0,4.057,4.0596,4.0668,4.0677,4.0697,4.0879,4.0726,4.0717,4.0756,4.074,4.0762,4.076,4.0724,4.0869,4.0891,4.0996,4.0795,4.124,4.1255,4.1268,4.1431,4.1462,4.1489,0,0,0,0,0,4.0562,4.0718,4.0673,4.0694,4.0786,4.0885,4.0896,4.0849,4.0765,4.0838,4.0831,4.0759,4.0971,4.0884,4.0908,4.1017,4.1233,4.1251,4.1267,4.1418,4.1456,4.1488,0,0,0,0,0,0,4.0726,4.0718,4.0668,4.083,4.0859,4.086,4.0951,4.0891,4.0947,4.093,4.0872,4.0879,4.1028,4.1036,4.0939,4.1207,4.1088,4.1111,4.1195,4.1231,4.1259,4.1254,4.0803,0,0,0,0,0,4.078,4.0858,4.0848,4.0993,4.1009,4.0978,4.102,4.098,4.1009,4.1021,4.1024,4.1058,4.1132,4.1182,4.125,4.1432,4.1435,4.1519,4.1547,4.1571,4.1591,4.1687,4.1724,4.1331,4.133,4.133,0,0,4.0895,4.09,4.0954,4.1026,4.1043,4.1127,4.099,4.1085,4.1147,4.1037,4.1166,4.117,4.1204,4.1364,4.1435,4.1376,4.17,4.1592,4.1611,4.1619,4.1708,4.1745,4.1779,4.1342,4.134,4.1338,0,0,4.1146,4.1158,4.1278,4.1298,4.1324,4.1302,4.1332,4.1342,4.1339,4.1467,4.1385,4.1461,4.159,4.1616,4.1647,4.1906,4.1842,4.1931,4.2081,4.2175,4.2206,4.2233,4.2325,4.2359,4.1951,4.1951,4.1951,0,4.1285,4.1406,4.1349,4.1448,4.1483,4.1383,4.1505,4.1528,4.1578,4.1605,4.1537,4.1695,4.1711,4.1876,4.1939,4.1967,4.2,4.1927,4.2206,4.2232,4.2257,4.2344,4.2379,4.1962,4.196,4.1959,4.1958,0,4.1576,4.1661,4.1756,4.1801,4.1846,4.1958,4.1919,4.1973,4.1929,4.1915,4.2047,4.2062,4.213,4.2167,4.2128,4.2326,4.2288,4.2215,4.2094,4.2306,4.2386,4.2419,4.1977,4.1973,4.197,4.1967,0,0,4.1933,4.1943,4.1979,4.1997,4.2019,4.2085,4.2193,4.2255,4.2302,4.234,4.2429,4.2539,4.247,4.2505,4.2467,4.255,4.2754,4.2466,4.2465,4.2518,4.2973,4.3028,4.3067,4.2711,4.2717,4.2722,4.297,0,4.2179,4.2359,4.231,4.2491,4.2569,4.2475,4.2568,4.2593,4.2583,4.265,4.2639,4.2718,4.2621,4.2641,4.2719,4.2712,4.2844,4.2694,4.2795,4.2799,4.2788,4.3109,4.3168,4.3401,4.3001,4.3006,4.301,0,4.2491,4.2536,4.2724,4.2731,4.2762,4.2846,4.2899,4.2964,4.2991,4.2977,4.3015,4.2961,4.3069,4.2948,4.3096,4.2995,4.3033,4.3037,4.3045,4.3052,4.2917,4.3125,4.3475,4.3509,4.306,4.3056,4.3052,0,4.2731,4.284,4.2965,4.2985,4.2996,4.3058,4.3066,4.3085,4.3126,4.3174,4.3199,4.3261,4.3295,4.3344,4.3309,4.3224,4.3463,4.3339,4.3456,4.3457,4.3511,4.3508,4.3871,4.3537,4.3537,4.3536,4.3536,0,4.3012,4.313,4.3072,4.315,4.328,4.3224,4.3355,4.3353,4.3371,4.3448,4.3372,4.3446,4.3394,4.3466,4.3439,4.3565,4.3582,4.3576,4.3567,4.3582,4.3583,4.3606,4.3589,4.3545,4.3543,4.3542,4.354,0,4.3302,4.3268,4.3398,4.3398,4.34,4.3496,4.3497,4.3569,4.3552,4.3651,4.3671,4.3646,4.3725,4.3694,4.378,4.3762,4.3923,4.3894,4.3913,4.3905,4.4024,4.4013,4.4414,4.4464,4.4099,4.4103,4.4106,0,4.3483,4.3571,4.3578,4.3622,4.3635,4.3708,4.3747,4.3696,4.3741,4.3776,4.3845,4.3917,4.3971,4.4103,4.4095,4.4159,4.4131,4.4267,4.414,4.4152,4.4132,4.4127,4.4135,4.4293,4.4297,4.43,4.4303,0,4.3807,4.3785,4.3843,4.3896,4.3945,4.3985,4.4018,4.406,4.4009,4.4064,4.4142,4.4184,4.4269,4.4341,4.4399,4.441,4.435,4.4343,4.4373,4.4389,4.4396,4.4392,4.3981,4.4334,4.4331,4.4328,4.4327,4.4326,4.4047,4.4121,4.4136,4.4204,4.4223,4.4255,4.4323,4.4313,4.4376,4.4438,4.4404,4.4495,4.4519,4.4589,4.4609,4.4681,4.4628,4.4673,4.4684,4.4695,4.471,4.4384,4.4692,4.4691,4.469,4.4689,4.4688,0,4.4367,4.4372,4.4434,4.4481,4.4535,4.4468,4.4502,4.4552,4.4631,4.4657,4.4711,4.48,4.487,4.4866,4.493,4.4989,4.4962,4.5007,4.5002,4.5006,4.4754,4.4721,4.5027,4.5027,4.5027,4.5027,4.5027,4.5027,4.4539,4.4659,4.4639,4.4768,4.4772,4.4857,4.4882,4.4912,4.4932,4.5034,4.509,4.5085,4.51,4.5164,4.5225,4.5223,4.525,4.5306,4.5293,4.5058,4.5024,4.4992,4.496,4.5312,4.5312,4.5538,4.554,4.5542]},{"header":{"parameterUnit":"m.s-1","parameterCategory":1,"la1":30.2991,"la2":30.254,"lo1":-89.0895,"lo2":-89.0444,"dy":0.0017,"dx":0.0017,"nx":28,"ny":28,"refTime":"2024-06-29T09:00:00:Z","depth":0,"parameterNumber":3,"parameterNumberName":"V-component_of_WINDS"},"data":[0,0,0,0,0,0,0,0,0,0,0,0,0,0,0,0,0,0,0,0,0,0,0,0,0,0,0,0,0,0,0,0,0,0,0,0,0,0,0,0,0,0,0,0,0,0,0,0,0,0,0,0,0,0,0,0,0,0,0.063,0.0632,0,0.0822,0.0824,0.0826,0.087,0.0869,0.0867,0.0866,0.1068,0.1074,0.1081,0,0,0,0,0,0,0,0,0,0,0,0,0,0.0306,0.0312,0.063,0.0633,0.0635,0.0822,0.0824,0.0827,0.087,0.0869,0.0867,0.0865,0.1066,0.1073,0.1081,0,0,0,0,0,0,0,0,0,0,0,0,0,0.0467,0.0313,0.063,0.0679,0.0685,0.0821,0.0824,0.0828,0.0871,0.0869,0.0867,0.0865,0.1063,0.1073,0.1082,0.1185,0,0,0.1113,0.1117,0,0,0,0,0,0,0,0,0.0458,0.0479,0.0669,0.0676,0.0683,0.082,0.0784,0.0948,0.0871,0.0801,0.0866,0.0864,0.0987,0.1003,0.1044,0.1194,0.1203,0.1114,0.112,0.1124,0.1127,0,0,0,0,0,0,0,0.0447,0.0471,0.0706,0.0672,0.0681,0.0693,0.0714,0.0815,0.0903,0.0807,0.081,0.0832,0.0991,0.1034,0.1049,0.1206,0.1113,0.1122,0.1128,0.1132,0.1448,0.145,0,0,0,0,0,0,0.0426,0.0461,0.07,0.0712,0.0563,0.07,0.0723,0.0778,0.0902,0.0919,0.0833,0.0833,0.1018,0.1037,0.1056,0.1184,0.1124,0.1133,0.1139,0.1445,0.1448,0.1451,0,0,0,0,0,0,0.0419,0.0447,0.0693,0.0588,0.062,0.0708,0.0769,0.0783,0.0827,0.0922,0.0939,0.0861,0.1017,0.1042,0.1152,0.1191,0.1138,0.1147,0.1442,0.1446,0.145,0.1439,0,0,0,0,0,0,0.041,0.0444,0.0483,0.0588,0.0625,0.0784,0.0772,0.0788,0.0843,0.0845,0.0953,0.0969,0.1018,0.1137,0.1162,0.1204,0.1155,0.1439,0.1444,0.1448,0.1436,0.1442,0.1447,0,0,0,0,0,0.0398,0.0474,0.0485,0.0514,0.0676,0.0786,0.0807,0.086,0.0846,0.0887,0.0948,0.0966,0.1182,0.1147,0.1176,0.1222,0.1437,0.1443,0.1448,0.1434,0.1441,0.1446,0,0,0,0,0,0,0.0375,0.0489,0.0502,0.0615,0.069,0.0793,0.0846,0.0866,0.0948,0.0947,0.101,0.1034,0.1139,0.1192,0.1151,0.1326,0.1309,0.1321,0.1289,0.1296,0.1301,0.1287,0.1163,0,0,0,0,0,0.0382,0.046,0.0557,0.0647,0.0683,0.0758,0.0808,0.0841,0.0923,0.0956,0.1025,0.1105,0.119,0.1246,0.133,0.1443,0.1468,0.1489,0.1494,0.1497,0.1507,0.157,0.158,0.1469,0.1469,0.1469,0,0,0.0399,0.0471,0.0518,0.0643,0.0706,0.0787,0.0785,0.0871,0.0932,0.097,0.1077,0.113,0.1223,0.1334,0.1386,0.1381,0.1543,0.1504,0.1507,0.1515,0.1576,0.1587,0.1596,0.1472,0.1472,0.1471,0,0,0.0472,0.0534,0.0615,0.0677,0.077,0.0818,0.0838,0.0938,0.0974,0.1081,0.1111,0.1185,0.1331,0.1396,0.1448,0.1542,0.1561,0.1567,0.1595,0.1655,0.1664,0.1672,0.1706,0.1717,0.1576,0.1576,0.1576,0,0.0483,0.0604,0.0655,0.0739,0.0794,0.0828,0.0911,0.0969,0.1086,0.1124,0.1115,0.1298,0.1363,0.1489,0.1512,0.1553,0.1577,0.1556,0.1658,0.1667,0.1676,0.1708,0.1721,0.1576,0.1576,0.1576,0.1576,0,0.0612,0.0696,0.075,0.0859,0.092,0.1003,0.1068,0.1123,0.115,0.12,0.1309,0.1387,0.1488,0.152,0.1549,0.165,0.1643,0.1645,0.163,0.1685,0.1717,0.173,0.1577,0.1577,0.1576,0.1576,0,0,0.0679,0.0812,0.0832,0.0881,0.0985,0.1051,0.1135,0.1231,0.1278,0.1356,0.1429,0.1551,0.1552,0.1611,0.1647,0.17,0.1769,0.1696,0.1699,0.1707,0.1885,0.1883,0.1897,0.1781,0.1784,0.1786,0.1877,0,0.0765,0.0915,0.0962,0.1088,0.1166,0.1199,0.1272,0.1344,0.1392,0.1466,0.1519,0.1605,0.16,0.1636,0.1689,0.1749,0.1806,0.1743,0.1851,0.1854,0.1828,0.1914,0.1913,0.1996,0.189,0.1892,0.1894,0,0.0887,0.0964,0.1097,0.1189,0.1224,0.1289,0.1379,0.1449,0.1531,0.1562,0.1626,0.1657,0.1747,0.1724,0.1849,0.1805,0.1851,0.1887,0.1891,0.1905,0.1878,0.193,0.2023,0.2036,0.1914,0.1912,0.1911,0,0.0922,0.106,0.1157,0.1198,0.1308,0.1353,0.1401,0.1481,0.1535,0.1614,0.165,0.1739,0.1788,0.1857,0.1911,0.1889,0.2031,0.2013,0.206,0.2059,0.209,0.2088,0.2193,0.2118,0.2118,0.2117,0.2117,0,0.1014,0.1095,0.1174,0.1234,0.1325,0.1378,0.1467,0.1517,0.1587,0.1658,0.1691,0.1757,0.1824,0.1899,0.1942,0.2038,0.206,0.2088,0.2099,0.2086,0.2083,0.2119,0.2115,0.2121,0.212,0.2119,0.2119,0,0.1071,0.1127,0.1235,0.1328,0.1354,0.1417,0.1498,0.1557,0.1605,0.1694,0.1718,0.1793,0.1883,0.1943,0.2058,0.2087,0.2192,0.2201,0.2163,0.2169,0.2213,0.2208,0.2346,0.2367,0.2276,0.2277,0.2278,0,0.1126,0.1188,0.1287,0.1336,0.1384,0.1462,0.1516,0.157,0.1626,0.1722,0.177,0.1861,0.1937,0.2078,0.2144,0.2232,0.2244,0.2286,0.2258,0.2242,0.2245,0.2241,0.2248,0.2291,0.2292,0.2292,0.2293,0,0.122,0.1243,0.1319,0.1405,0.1467,0.1538,0.1609,0.1647,0.1713,0.1774,0.1864,0.1923,0.2038,0.2129,0.2222,0.2272,0.2294,0.2301,0.2316,0.2305,0.2281,0.2295,0.2177,0.2298,0.2298,0.2297,0.2297,0.2297,0.1278,0.1334,0.1412,0.1495,0.1553,0.1617,0.1677,0.1731,0.1807,0.1904,0.1931,0.2026,0.2105,0.2232,0.2283,0.2358,0.2355,0.2377,0.2383,0.2388,0.2388,0.2267,0.2376,0.2375,0.2375,0.2375,0.2375,0,0.1374,0.1424,0.15,0.1596,0.1661,0.1672,0.175,0.1805,0.1887,0.1957,0.203,0.2134,0.222,0.2291,0.2381,0.2427,0.2439,0.2449,0.2447,0.2458,0.2387,0.2364,0.2437,0.2437,0.2437,0.2437,0.2437,0.2437,0.1431,0.1526,0.1559,0.1683,0.1734,0.1825,0.1868,0.1928,0.1984,0.2097,0.2169,0.2213,0.2285,0.2379,0.2459,0.2477,0.2509,0.2517,0.2538,0.247,0.2463,0.2457,0.2436,0.2523,0.2523,0.2603,0.2604,0.2604]}]]